TimeCDT,TemperatureF,Dew PointF,Humidity,Sea Level PressureIn,VisibilityMPH,Wind Direction,Wind SpeedMPH,Gust SpeedMPH,PrecipitationIn,Events,Conditions,WindDirDegrees,DateUTC
12:08 AM,57.9,37.0,46,-9999,-9999.0,South,8.1,-,N/A,,Unknown,190,2012-10-15 05:08:00
12:28 AM,57.0,36.1,46,-9999,-9999.0,South,6.9,-,N/A,,Unknown,190,2012-10-15 05:28:00
12:48 AM,57.0,37.0,47,-9999,-9999.0,South,6.9,-,N/A,,Unknown,190,2012-10-15 05:48:00
1:08 AM,55.9,36.1,47,-9999,-9999.0,SSW,8.1,-,N/A,,Unknown,200,2012-10-15 06:08:00
1:28 AM,55.9,36.1,47,-9999,-9999.0,SSW,8.1,-,N/A,,Unknown,200,2012-10-15 06:28:00
1:48 AM,54.0,35.1,49,-9999,-9999.0,South,9.2,-,N/A,,Unknown,190,2012-10-15 06:48:00
2:08 AM,53.1,35.1,50,-9999,-9999.0,South,9.2,-,N/A,,Unknown,190,2012-10-15 07:08:00
2:28 AM,53.1,36.1,53,-9999,-9999.0,South,9.2,-,N/A,,Unknown,180,2012-10-15 07:28:00
2:48 AM,53.1,35.1,50,-9999,-9999.0,South,9.2,-,N/A,,Unknown,190,2012-10-15 07:48:00
3:08 AM,54.0,35.1,49,-9999,-9999.0,South,10.4,-,N/A,,Unknown,190,2012-10-15 08:08:00
3:28 AM,52.0,35.1,53,-9999,-9999.0,South,10.4,-,N/A,,Unknown,190,2012-10-15 08:28:00
3:48 AM,51.1,36.1,57,-9999,-9999.0,South,9.2,-,N/A,,Unknown,190,2012-10-15 08:48:00
4:08 AM,52.0,36.1,55,-9999,-9999.0,South,6.9,-,N/A,,Unknown,190,2012-10-15 09:08:00
4:28 AM,52.0,37.0,57,-9999,-9999.0,South,6.9,-,N/A,,Unknown,190,2012-10-15 09:28:00
4:48 AM,51.1,36.1,57,-9999,-9999.0,SSW,6.9,-,N/A,,Unknown,200,2012-10-15 09:48:00
5:08 AM,51.1,36.1,57,-9999,-9999.0,SSW,9.2,-,N/A,,Unknown,210,2012-10-15 10:08:00
5:28 AM,52.0,36.1,55,-9999,-9999.0,SSW,9.2,-,N/A,,Unknown,200,2012-10-15 10:28:00
5:48 AM,52.0,36.1,55,-9999,-9999.0,SSW,11.5,-,N/A,,Unknown,200,2012-10-15 10:48:00
6:08 AM,51.1,37.0,59,-9999,-9999.0,SSW,9.2,-,N/A,,Unknown,210,2012-10-15 11:08:00
6:28 AM,50.0,37.0,61,-9999,-9999.0,SW,8.1,-,N/A,,Unknown,220,2012-10-15 11:28:00
6:48 AM,48.9,37.0,64,-9999,-9999.0,SW,6.9,-,N/A,,Unknown,220,2012-10-15 11:48:00
7:08 AM,48.0,37.0,66,-9999,-9999.0,SW,6.9,-,N/A,,Unknown,220,2012-10-15 12:08:00
7:28 AM,46.9,36.1,66,-9999,-9999.0,SW,8.1,-,N/A,,Unknown,220,2012-10-15 12:28:00
7:48 AM,48.0,37.0,66,-9999,-9999.0,WSW,8.1,-,N/A,,Unknown,240,2012-10-15 12:48:00
8:08 AM,48.0,37.0,66,-9999,-9999.0,SW,9.2,-,N/A,,Unknown,230,2012-10-15 13:08:00
8:28 AM,48.9,37.0,64,-9999,-9999.0,SW,9.2,-,N/A,,Unknown,230,2012-10-15 13:28:00
8:48 AM,50.0,38.1,64,-9999,-9999.0,West,9.2,-,N/A,,Unknown,260,2012-10-15 13:48:00
9:08 AM,52.0,39.0,61,-9999,-9999.0,West,8.1,-,N/A,,Unknown,270,2012-10-15 14:08:00
9:28 AM,53.1,40.1,61,-9999,-9999.0,West,9.2,-,N/A,,Unknown,270,2012-10-15 14:28:00
9:48 AM,55.0,41.2,60,-9999,-9999.0,West,8.1,-,N/A,,Unknown,280,2012-10-15 14:48:00
10:08 AM,57.9,43.2,58,-9999,-9999.0,WNW,3.5,-,N/A,,Unknown,300,2012-10-15 15:08:00
10:28 AM,60.1,42.1,51,-9999,-9999.0,West,6.9,-,N/A,,Unknown,270,2012-10-15 15:28:00
10:48 AM,62.1,42.1,48,-9999,-9999.0,West,5.8,-,N/A,,Unknown,280,2012-10-15 15:48:00
11:08 AM,64.0,44.1,48,-9999,-9999.0,WNW,5.8,-,N/A,,Unknown,290,2012-10-15 16:08:00
11:28 AM,66.0,44.1,45,-9999,-9999.0,West,5.8,-,N/A,,Unknown,270,2012-10-15 16:28:00
11:48 AM,68.0,46.0,45,-9999,-9999.0,SW,4.6,-,N/A,,Unknown,230,2012-10-15 16:48:00
12:08 PM,69.1,43.2,39,-9999,-9999.0,SSW,5.8,-,N/A,,Unknown,200,2012-10-15 17:08:00
12:28 PM,71.1,45.1,39,-9999,-9999.0,South,5.8,-,N/A,,Unknown,180,2012-10-15 17:28:00
12:48 PM,71.6,44.6,38,-9999,-9999.0,South,5.8,-,N/A,,Unknown,190,2012-10-15 17:48:00
1:08 PM,73.0,46.0,38,-9999,-9999.0,SW,5.8,-,N/A,,Unknown,220,2012-10-15 18:08:00
1:28 PM,73.9,44.1,34,-9999,-9999.0,SSW,6.9,-,N/A,,Unknown,210,2012-10-15 18:28:00
1:48 PM,75.0,42.1,31,-9999,-9999.0,South,10.4,-,N/A,,Unknown,190,2012-10-15 18:48:00
2:08 PM,77.0,43.2,30,-9999,-9999.0,SSW,5.8,-,N/A,,Unknown,200,2012-10-15 19:08:00
2:28 PM,79.0,43.2,28,-9999,-9999.0,SSW,8.1,-,N/A,,Unknown,200,2012-10-15 19:28:00
2:48 PM,79.0,40.1,25,-9999,-9999.0,SSW,11.5,-,N/A,,Unknown,210,2012-10-15 19:48:00
3:08 PM,80.1,37.0,21,-9999,-9999.0,SSW,12.7,-,N/A,,Unknown,200,2012-10-15 20:08:00
3:28 PM,80.1,37.0,21,-9999,-9999.0,SSW,12.7,-,N/A,,Unknown,210,2012-10-15 20:28:00
3:48 PM,80.1,37.0,21,-9999,-9999.0,SSW,10.4,-,N/A,,Unknown,200,2012-10-15 20:48:00
4:08 PM,80.1,36.1,21,-9999,-9999.0,SSW,12.7,-,N/A,,Unknown,210,2012-10-15 21:08:00
4:28 PM,80.1,37.0,21,-9999,-9999.0,SSW,9.2,-,N/A,,Unknown,210,2012-10-15 21:28:00
4:48 PM,80.1,37.0,21,-9999,-9999.0,SSW,11.5,-,N/A,,Unknown,200,2012-10-15 21:48:00
5:08 PM,80.1,37.0,21,-9999,-9999.0,SSW,11.5,-,N/A,,Unknown,200,2012-10-15 22:08:00
5:28 PM,79.0,37.0,22,-9999,-9999.0,SSW,9.2,-,N/A,,Unknown,200,2012-10-15 22:28:00
5:48 PM,79.0,38.1,23,-9999,-9999.0,SSW,8.1,-,N/A,,Unknown,200,2012-10-15 22:48:00
6:08 PM,78.1,38.1,24,-9999,-9999.0,SSW,8.1,-,N/A,,Unknown,200,2012-10-15 23:08:00
6:28 PM,77.0,39.0,25,-9999,-9999.0,South,5.8,-,N/A,,Unknown,190,2012-10-15 23:28:00
6:48 PM,73.0,40.1,30,-9999,-9999.0,South,5.8,-,N/A,,Unknown,180,2012-10-15 23:48:00
7:08 PM,70.0,39.0,32,-9999,-9999.0,South,5.8,-,N/A,,Unknown,180,2012-10-16 00:08:00
7:28 PM,69.1,39.0,33,-9999,-9999.0,South,8.1,-,N/A,,Unknown,180,2012-10-16 00:28:00
7:48 PM,69.1,38.1,32,-9999,-9999.0,South,8.1,-,N/A,,Unknown,180,2012-10-16 00:48:00
8:08 PM,69.1,37.0,31,-9999,-9999.0,South,9.2,-,N/A,,Unknown,190,2012-10-16 01:08:00
8:28 PM,66.0,38.1,36,-9999,-9999.0,South,9.2,-,N/A,,Unknown,180,2012-10-16 01:28:00
8:48 PM,66.0,37.0,34,-9999,-9999.0,South,9.2,-,N/A,,Unknown,190,2012-10-16 01:48:00
9:08 PM,64.0,36.1,36,-9999,-9999.0,South,9.2,-,N/A,,Unknown,180,2012-10-16 02:08:00
9:28 PM,63.0,36.1,37,-9999,-9999.0,South,9.2,-,N/A,,Unknown,190,2012-10-16 02:28:00
9:48 PM,61.0,37.0,41,-9999,-9999.0,South,8.1,-,N/A,,Unknown,190,2012-10-16 02:48:00
10:08 PM,60.1,37.0,42,-9999,-9999.0,South,9.2,-,N/A,,Unknown,190,2012-10-16 03:08:00
10:28 PM,59.0,37.0,44,-9999,-9999.0,SSW,10.4,-,N/A,,Unknown,200,2012-10-16 03:28:00
10:48 PM,59.0,36.1,42,-9999,-9999.0,SSW,8.1,-,N/A,,Unknown,200,2012-10-16 03:48:00
11:08 PM,60.1,34.2,38,-9999,-9999.0,SSW,13.8,-,N/A,,Unknown,200,2012-10-16 04:08:00
11:28 PM,59.0,35.1,41,-9999,-9999.0,SSW,12.7,-,N/A,,Unknown,200,2012-10-16 04:28:00
11:48 PM,59.0,35.1,41,-9999,-9999.0,SSW,11.5,-,N/A,,Unknown,200,2012-10-16 04:48:00